QPF
0.00 0.00 0.00 0.00 0.00 0.01 0.01 0.01 0.01 0.01 0.01 0.01 0.02 0.04 0.05 0.05 0.06 0.05 0.05 0.04 0.03 0.02 0.01 0.00 0.00 0.01 0.00 0.01 0.02 0.03 0.02 0.01 0.02 0.02 0.02 0.01 0.01 0.02 0.02 0.01 0.01 0.01 0.01 0.01
0.00 0.00 0.00 0.00 0.00 0.00 0.01 0.01 0.00 0.00 0.01 0.01 0.03 0.07 0.05 0.05 0.08 0.08 0.06 0.06 0.06 0.04 0.02 0.01 0.01 0.01 0.01 0.01 0.02 0.03 0.03 0.02 0.02 0.01 0.02 0.02 0.02 0.01 0.01 0.01 0.01 0.02 0.01 0.02
0.00 0.00 0.00 0.00 0.00 0.00 0.00 0.00 0.00 0.00 0.01 0.01 0.01 0.04 0.05 0.03 0.03 0.03 0.04 0.06 0.09 0.06 0.04 0.03 0.03 0.02 0.02 0.02 0.03 0.03 0.02 0.02 0.02 0.02 0.01 0.01 0.01 0.00 0.00 0.01 0.02 0.02 0.02 0.02
0.00 0.00 0.00 0.00 0.00 0.00 0.00 0.00 0.01 0.01 0.01 0.01 0.01 0.01 0.03 0.02 0.01 0.02 0.02 0.04 0.06 0.06 0.05 0.05 0.05 0.05 0.05 0.06 0.05 0.04 0.03 0.03 0.02 0.02 0.02 0.01 0.01 0.01 0.01 0.02 0.02 0.03 0.03 0.02
0.00 0.00 0.00 0.00 0.00 0.00 0.00 0.01 0.01 0.01 0.01 0.00 0.00 0.01 0.03 0.02 0.03 0.02 0.02 0.02 0.04 0.06 0.06 0.05 0.04 0.04 0.06 0.08 0.07 0.05 0.05 0.04 0.03 0.02 0.01 0.01 0.01 0.01 0.02 0.02 0.03 0.05 0.05 0.03
0.00 0.00 0.00 0.01 0.01 0.01 0.01 0.04 0.02 0.02 0.02 0.01 0.01 0.02 0.05 0.04 0.02 0.02 0.02 0.03 0.03 0.04 0.05 0.04 0.04 0.04 0.04 0.05 0.07 0.06 0.05 0.04 0.03 0.03 0.02 0.02 0.02 0.02 0.02 0.04 0.08 0.12 0.08 0.05
0.00 0.00 0.01 0.01 0.02 0.01 0.02 0.03 0.02 0.02 0.02 0.01 0.01 0.02 0.03 0.02 0.02 0.02 0.02 0.04 0.05 0.03 0.04 0.04 0.04 0.04 0.04 0.05 0.06 0.06 0.06 0.05 0.04 0.04 0.04 0.03 0.03 0.03 0.03 0.04 0.04 0.04 0.03 0.02
0.01 0.01 0.01 0.02 0.02 0.03 0.03 0.05 0.04 0.02 0.02 0.02 0.02 0.02 0.02 0.02 0.01 0.02 0.02 0.02 0.02 0.02 0.03 0.04 0.05 0.06 0.07 0.07 0.08 0.10 0.11 0.10 0.08 0.07 0.06 0.04 0.03 0.04 0.05 0.04 0.03 0.03 0.03 0.02
0.01 0.01 0.01 0.03 0.03 0.03 0.03 0.05 0.07 0.04 0.02 0.02 0.02 0.04 0.03 0.03 0.01 0.01 0.01 0.01 0.01 0.02 0.03 0.04 0.07 0.09 0.11 0.10 0.11 0.12 0.14 0.15 0.14 0.10 0.07 0.05 0.05 0.05 0.06 0.04 0.03 0.03 0.02 0.02
0.02 0.02 0.01 0.01 0.02 0.03 0.03 0.04 0.05 0.04 0.03 0.02 0.02 0.02 0.03 0.02 0.02 0.01 0.01 0.01 0.01 0.01 0.02 0.03 0.05 0.07 0.09 0.11 0.13 0.12 0.13 0.12 0.10 0.09 0.07 0.06 0.06 0.06 0.06 0.04 0.04 0.03 0.02 0.02
0.06 0.05 0.04 0.03 0.02 0.02 0.05 0.06 0.08 0.07 0.05 0.04 0.04 0.03 0.03 0.02 0.02 0.02 0.02 0.02 0.02 0.02 0.02 0.03 0.03 0.05 0.08 0.09 0.10 0.14 0.14 0.13 0.11 0.09 0.09 0.07 0.06 0.05 0.04 0.04 0.03 0.03 0.03 0.03
0.10 0.07 0.04 0.04 0.02 0.03 0.06 0.06 0.07 0.06 0.06 0.05 0.04 0.04 0.03 0.03 0.03 0.03 0.03 0.03 0.03 0.02 0.02 0.02 0.03 0.03 0.05 0.07 0.07 0.10 0.12 0.14 0.13 0.10 0.11 0.10 0.07 0.06 0.05 0.04 0.04 0.04 0.04 0.03
0.11 0.08 0.06 0.05 0.03 0.03 0.05 0.06 0.05 0.05 0.05 0.05 0.04 0.04 0.03 0.03 0.02 0.03 0.03 0.04 0.03 0.02 0.02 0.02 0.02 0.03 0.04 0.06 0.09 0.09 0.07 0.07 0.07 0.07 0.08 0.07 0.07 0.07 0.06 0.06 0.06 0.05 0.04 0.04
0.06 0.10 0.11 0.11 0.10 0.08 0.06 0.06 0.06 0.05 0.04 0.05 0.04 0.04 0.05 0.05 0.05 0.05 0.04 0.04 0.03 0.03 0.01 0.01 0.01 0.02 0.03 0.05 0.11 0.13 0.08 0.06 0.05 0.06 0.09 0.10 0.09 0.09 0.08 0.08 0.08 0.07 0.05 0.05
0.05 0.07 0.13 0.21 0.16 0.14 0.12 0.10 0.10 0.06 0.04 0.04 0.05 0.04 0.06 0.08 0.08 0.07 0.06 0.05 0.04 0.03 0.02 0.02 0.02 0.02 0.03 0.05 0.06 0.10 0.11 0.10 0.08 0.06 0.06 0.09 0.13 0.15 0.16 0.15 0.13 0.08 0.05 0.04
0.13 0.11 0.14 0.21 0.16 0.13 0.12 0.11 0.13 0.10 0.06 0.05 0.05 0.05 0.07 0.09 0.09 0.07 0.06 0.05 0.05 0.04 0.04 0.03 0.03 0.02 0.02 0.03 0.04 0.04 0.06 0.07 0.06 0.05 0.05 0.06 0.06 0.09 0.11 0.12 0.11 0.09 0.07 0.06
0.16 0.16 0.11 0.12 0.14 0.14 0.15 0.11 0.09 0.10 0.10 0.08 0.07 0.07 0.07 0.07 0.07 0.07 0.06 0.06 0.07 0.07 0.05 0.05 0.05 0.03 0.02 0.02 0.02 0.04 0.05 0.05 0.04 0.03 0.04 0.05 0.07 0.08 0.08 0.08 0.08 0.09 0.08 0.07
0.14 0.14 0.12 0.10 0.09 0.10 0.12 0.13 0.10 0.09 0.10 0.08 0.07 0.06 0.05 0.05 0.06 0.06 0.06 0.05 0.05 0.06 0.04 0.04 0.05 0.05 0.04 0.04 0.04 0.04 0.05 0.05 0.05 0.04 0.04 0.04 0.05 0.08 0.08 0.08 0.09 0.08 0.07 0.06
0.19 0.19 0.17 0.14 0.09 0.09 0.08 0.10 0.13 0.09 0.06 0.05 0.04 0.04 0.04 0.04 0.04 0.05 0.05 0.04 0.04 0.05 0.04 0.04 0.03 0.03 0.03 0.04 0.05 0.05 0.04 0.05 0.05 0.05 0.04 0.05 0.06 0.06 0.05 0.05 0.06 0.06 0.06 0.05
0.17 0.21 0.21 0.18 0.12 0.10 0.09 0.07 0.06 0.04 0.03 0.03 0.03 0.04 0.04 0.05 0.05 0.06 0.06 0.06 0.06 0.05 0.03 0.02 0.02 0.01 0.01 0.02 0.03 0.03 0.03 0.03 0.04 0.03 0.03 0.03 0.03 0.04 0.04 0.04 0.05 0.05 0.05 0.04
0.15 0.19 0.19 0.18 0.13 0.10 0.07 0.04 0.03 0.03 0.02 0.03 0.04 0.05 0.04 0.04 0.04 0.04 0.05 0.05 0.05 0.05 0.03 0.01 0.01 0.01 0.01 0.02 0.02 0.02 0.02 0.02 0.02 0.02 0.02 0.02 0.03 0.03 0.04 0.05 0.06 0.06 0.05 0.06
0.10 0.12 0.12 0.10 0.09 0.08 0.06 0.06 0.04 0.03 0.02 0.03 0.03 0.04 0.04 0.03 0.03 0.02 0.03 0.04 0.05 0.04 0.03 0.02 0.01 0.02 0.02 0.03 0.03 0.02 0.02 0.02 0.02 0.02 0.02 0.02 0.03 0.03 0.03 0.03 0.04 0.04 0.03 0.03
0.06 0.07 0.06 0.05 0.04 0.05 0.04 0.04 0.05 0.03 0.02 0.02 0.03 0.04 0.04 0.03 0.03 0.03 0.02 0.03 0.04 0.04 0.03 0.03 0.04 0.05 0.06 0.05 0.04 0.03 0.03 0.03 0.03 0.02 0.02 0.02 0.03 0.03 0.04 0.03 0.04 0.04 0.03 0.03
0.04 0.03 0.03 0.03 0.02 0.02 0.02 0.02 0.03 0.04 0.03 0.03 0.03 0.04 0.04 0.04 0.04 0.03 0.02 0.03 0.03 0.03 0.04 0.05 0.05 0.06 0.08 0.09 0.08 0.05 0.03 0.03 0.02 0.03 0.03 0.02 0.03 0.03 0.04 0.04 0.05 0.06 0.06 0.05
0.05 0.03 0.02 0.02 0.01 0.02 0.02 0.02 0.03 0.04 0.04 0.03 0.02 0.02 0.03 0.04 0.04 0.03 0.03 0.03 0.03 0.03 0.04 0.05 0.06 0.07 0.09 0.09 0.09 0.10 0.07 0.05 0.04 0.03 0.03 0.03 0.03 0.03 0.04 0.04 0.04 0.05 0.06 0.06
0.06 0.05 0.04 0.03 0.03 0.03 0.03 0.03 0.03 0.03 0.02 0.01 0.01 0.01 0.03 0.02 0.02 0.03 0.04 0.05 0.05 0.04 0.04 0.04 0.04 0.04 0.05 0.05 0.04 0.07 0.10 0.10 0.07 0.05 0.04 0.05 0.05 0.06 0.06 0.06 0.05 0.05 0.05 0.04
0.05 0.05 0.05 0.04 0.03 0.02 0.02 0.02 0.01 0.02 0.02 0.01 0.01 0.02 0.03 0.02 0.02 0.03 0.03 0.04 0.06 0.05 0.06 0.06 0.05 0.04 0.03 0.03 0.03 0.04 0.05 0.07 0.07 0.07 0.06 0.07 0.08 0.09 0.08 0.06 0.05 0.04 0.03 0.03
MSLP
1012.64 1013.01 1013.31 1013.52 1013.64 1013.67 1013.61 1013.45 1013.22 1012.94 1012.62 1012.32 1012.06 1011.87 1011.77 1011.76 1011.83 1011.95 1012.11 1012.27 1012.43 1012.58 1012.72 1012.88 1013.07 1013.29 1013.57 1013.89 1014.23 1014.56 1014.85 1015.07 1015.22 1015.30 1015.32 1015.32 1015.34 1015.41 1015.55 1015.77 1016.06 1016.38 1016.70 1016.98
1013.19 1013.44 1013.51 1013.43 1013.22 1012.90 1012.53 1012.13 1011.76 1011.44 1011.20 1011.07 1011.05 1011.12 1011.27 1011.46 1011.66 1011.84 1011.99 1012.09 1012.16 1012.22 1012.31 1012.44 1012.65 1012.95 1013.32 1013.76 1014.21 1014.64 1015.01 1015.28 1015.46 1015.54 1015.57 1015.57 1015.60 1015.70 1015.89 1016.17 1016.52 1016.91 1017.30 1017.63
1013.86 1013.95 1013.82 1013.47 1012.97 1012.36 1011.73 1011.14 1010.65 1010.31 1010.15 1010.16 1010.32 1010.59 1010.92 1011.26 1011.55 1011.77 1011.90 1011.96 1011.96 1011.97 1012.02 1012.15 1012.40 1012.76 1013.23 1013.77 1014.32 1014.83 1015.26 1015.58 1015.77 1015.86 1015.89 1015.90 1015.95 1016.08 1016.31 1016.65 1017.06 1017.52 1017.97 1018.34
1014.54 1014.48 1014.16 1013.60 1012.87 1012.05 1011.24 1010.52 1009.96 1009.62 1009.51 1009.62 1009.91 1010.32 1010.78 1011.21 1011.56 1011.80 1011.92 1011.95 1011.92 1011.90 1011.94 1012.10 1012.39 1012.82 1013.36 1013.97 1014.59 1015.15 1015.61 1015.94 1016.14 1016.23 1016.26 1016.28 1016.35 1016.51 1016.79 1017.18 1017.65 1018.16 1018.65 1019.06
1015.11 1014.91 1014.44 1013.74 1012.86 1011.92 1011.01 1010.23 1009.65 1009.32 1009.26 1009.45 1009.83 1010.33 1010.85 1011.34 1011.73 1011.98 1012.10 1012.12 1012.09 1012.08 1012.14 1012.33 1012.66 1013.14 1013.72 1014.37 1015.00 1015.57 1016.03 1016.34 1016.53 1016.61 1016.64 1016.67 1016.77 1016.97 1017.29 1017.73 1018.24 1018.78 1019.30 1019.72
1015.46 1015.16 1014.59 1013.80 1012.87 1011.89 1010.97 1010.19 1009.65 1009.36 1009.36 1009.60 1010.04 1010.58 1011.15 1011.67 1012.07 1012.34 1012.48 1012.52 1012.52 1012.53 1012.63 1012.85 1013.22 1013.71 1014.30 1014.93 1015.54 1016.07 1016.48 1016.76 1016.92 1016.99 1017.02 1017.07 1017.20 1017.44 1017.80 1018.27 1018.82 1019.38 1019.89 1020.31
1015.54 1015.16 1014.55 1013.75 1012.84 1011.91 1011.05 1010.36 1009.88 1009.67 1009.73 1010.02 1010.49 1011.06 1011.65 1012.18 1012.60 1012.89 1013.06 1013.14 1013.18 1013.25 1013.38 1013.63 1014.00 1014.48 1015.03 1015.60 1016.14 1016.60 1016.94 1017.17 1017.29 1017.35 1017.39 1017.47 1017.64 1017.92 1018.32 1018.82 1019.37 1019.93 1020.43 1020.81
1015.37 1014.95 1014.35 1013.61 1012.79 1011.97 1011.24 1010.66 1010.30 1010.19 1010.31 1010.65 1011.14 1011.72 1012.30 1012.84 1013.27 1013.60 1013.81 1013.94 1014.03 1014.14 1014.31 1014.57 1014.92 1015.35 1015.83 1016.31 1016.75 1017.11 1017.37 1017.54 1017.63 1017.68 1017.75 1017.87 1018.09 1018.42 1018.85 1019.36 1019.91 1020.44 1020.90 1021.23
1015.01 1014.60 1014.06 1013.42 1012.74 1012.08 1011.52 1011.10 1010.87 1010.85 1011.04 1011.41 1011.92 1012.49 1013.07 1013.60 1014.05 1014.39 1014.65 1014.83 1014.97 1015.12 1015.31 1015.56 1015.87 1016.23 1016.61 1016.98 1017.31 1017.57 1017.75 1017.86 1017.93 1017.99 1018.09 1018.27 1018.54 1018.91 1019.37 1019.89 1020.42 1020.91 1021.30 1021.57
1014.59 1014.23 1013.79 1013.28 1012.77 1012.30 1011.91 1011.65 1011.55 1011.63 1011.87 1012.27 1012.76 1013.32 1013.87 1014.39 1014.84 1015.20 1015.49 1015.71 1015.90 1016.08 1016.27 1016.50 1016.75 1017.02 1017.30 1017.55 1017.77 1017.93 1018.04 1018.12 1018.19 1018.28 1018.43 1018.66 1018.99 1019.40 1019.88 1020.38 1020.87 1021.31 1021.63 1021.83
1014.23 1013.95 1013.62 1013.27 1012.93 1012.63 1012.41 1012.30 1012.31 1012.47 1012.75 1013.14 1013.62 1014.14 1014.66 1015.15 1015.59 1015.96 1016.26 1016.51 1016.72 1016.91 1017.10 1017.28 1017.47 1017.66 1017.83 1017.98 1018.10 1018.19 1018.25 1018.32 1018.40 1018.54 1018.74 1019.03 1019.40 1019.84 1020.33 1020.81 1021.25 1021.61 1021.86 1021.98
1014.01 1013.82 1013.61 1013.41 1013.23 1013.09 1013.01 1013.02 1013.12 1013.32 1013.62 1013.99 1014.43 1014.90 1015.37 1015.82 1016.23 1016.59 1016.91 1017.17 1017.39 1017.57 1017.74 1017.88 1018.01 1018.12 1018.21 1018.27 1018.32 1018.36 1018.40 1018.47 1018.59 1018.77 1019.02 1019.36 1019.77 1020.22 1020.69 1021.13 1021.51 1021.80 1021.97 1022.02
1013.94 1013.83 1013.74 1013.66 1013.61 1013.61 1013.64 1013.74 1013.90 1014.13 1014.42 1014.76 1015.15 1015.56 1015.98 1016.39 1016.76 1017.11 1017.41 1017.67 1017.89 1018.06 1018.21 1018.31 1018.39 1018.44 1018.46 1018.47 1018.47 1018.48 1018.52 1018.60 1018.75 1018.97 1019.27 1019.64 1020.06 1020.50 1020.94 1021.33 1021.65 1021.86 1021.97 1021.96
1013.94 1013.92 1013.92 1013.95 1014.01 1014.11 1014.23 1014.39 1014.59 1014.83 1015.11 1015.42 1015.76 1016.12 1016.49 1016.85 1017.20 1017.52 1017.81 1018.06 1018.27 1018.44 1018.56 1018.64 1018.67 1018.68 1018.66 1018.63 1018.60 1018.60 1018.64 1018.74 1018.92 1019.16 1019.48 1019.86 1020.27 1020.68 1021.07 1021.40 1021.65 1021.81 1021.85 1021.81
1013.94 1013.99 1014.07 1014.18 1014.33 1014.50 1014.70 1014.91 1015.14 1015.39 1015.67 1015.96 1016.26 1016.58 1016.91 1017.24 1017.57 1017.88 1018.16 1018.40 1018.61 1018.76 1018.87 1018.92 1018.93 1018.91 1018.86 1018.81 1018.77 1018.76 1018.81 1018.92 1019.10 1019.35 1019.66 1020.02 1020.40 1020.77 1021.10 1021.37 1021.56 1021.66 1021.67 1021.60
1013.86 1013.95 1014.10 1014.28 1014.50 1014.74 1014.99 1015.26 1015.53 1015.80 1016.08 1016.37 1016.67 1016.98 1017.29 1017.61 1017.93 1018.23 1018.51 1018.75 1018.95 1019.10 1019.20 1019.24 1019.23 1019.19 1019.12 1019.05 1019.00 1018.99 1019.03 1019.13 1019.30 1019.53 1019.82 1020.14 1020.47 1020.78 1021.05 1021.26 1021.39 1021.45 1021.44 1021.37
1013.65 1013.79 1013.99 1014.23 1014.51 1014.81 1015.13 1015.45 1015.77 1016.08 1016.39 1016.71 1017.02 1017.34 1017.67 1017.99 1018.31 1018.62 1018.90 1019.15 1019.35 1019.49 1019.58 1019.61 1019.59 1019.53 1019.45 1019.37 1019.30 1019.27 1019.29 1019.37 1019.52 1019.71 1019.95 1020.22 1020.48 1020.73 1020.94 1021.10 1021.19 1021.23 1021.21 1021.15
1013.37 1013.54 1013.78 1014.08 1014.41 1014.78 1015.16 1015.54 1015.92 1016.28 1016.64 1017.00 1017.35 1017.70 1018.05 1018.39 1018.73 1019.05 1019.33 1019.58 1019.78 1019.92 1020.00 1020.02 1019.99 1019.91 1019.82 1019.72 1019.64 1019.59 1019.58 1019.62 1019.72 1019.87 1020.05 1020.26 1020.46 1020.65 1020.80 1020.92 1020.99 1021.01 1020.99 1020.95
1013.10 1013.31 1013.59 1013.93 1014.32 1014.74 1015.18 1015.61 1016.05 1016.47 1016.88 1017.28 1017.67 1018.06 1018.43 1018.80 1019.15 1019.48 1019.77 1020.01 1020.20 1020.33 1020.40 1020.41 1020.36 1020.28 1020.17 1020.05 1019.95 1019.87 1019.83 1019.83 1019.89 1019.98 1020.11 1020.25 1020.40 1020.53 1020.64 1020.73 1020.78 1020.80 1020.79 1020.77
1012.98 1013.21 1013.53 1013.91 1014.33 1014.80 1015.27 1015.75 1016.23 1016.69 1017.14 1017.58 1018.00 1018.41 1018.80 1019.17 1019.52 1019.85 1020.13 1020.36 1020.54 1020.65 1020.70 1020.70 1020.64 1020.54 1020.42 1020.29 1020.17 1020.07 1019.99 1019.96 1019.97 1020.02 1020.09 1020.18 1020.28 1020.37 1020.45 1020.51 1020.55 1020.57 1020.57 1020.56
1013.11 1013.37 1013.71 1014.10 1014.55 1015.02 1015.51 1016.01 1016.50 1016.97 1017.43 1017.88 1018.30 1018.71 1019.09 1019.46 1019.79 1020.09 1020.35 1020.56 1020.71 1020.81 1020.85 1020.83 1020.76 1020.66 1020.53 1020.39 1020.25 1020.14 1020.04 1019.99 1019.96 1019.96 1019.99 1020.04 1020.10 1020.16 1020.21 1020.25 1020.28 1020.29 1020.29 1020.29
1013.53 1013.81 1014.15 1014.55 1014.98 1015.44 1015.91 1016.39 1016.85 1017.30 1017.74 1018.16 1018.55 1018.93 1019.28 1019.61 1019.91 1020.17 1020.39 1020.57 1020.69 1020.77 1020.79 1020.76 1020.69 1020.59 1020.46 1020.32 1020.19 1020.07 1019.96 1019.89 1019.83 1019.81 1019.81 1019.82 1019.84 1019.87 1019.90 1019.92 1019.93 1019.93 1019.93 1019.91
1014.22 1014.50 1014.83 1015.19 1015.58 1016.00 1016.42 1016.83 1017.24 1017.64 1018.02 1018.38 1018.72 1019.04 1019.33 1019.61 1019.85 1020.06 1020.24 1020.38 1020.47 1020.53 1020.54 1020.51 1020.44 1020.35 1020.23 1020.11 1019.99 1019.87 1019.76 1019.68 1019.61 1019.56 1019.53 1019.51 1019.50 1019.50 1019.50 1019.50 1019.49 1019.47 1019.45 1019.42
1015.06 1015.32 1015.61 1015.93 1016.26 1016.60 1016.95 1017.28 1017.61 1017.93 1018.23 1018.52 1018.78 1019.03 1019.26 1019.46 1019.64 1019.80 1019.93 1020.03 1020.10 1020.14 1020.14 1020.11 1020.06 1019.98 1019.89 1019.79 1019.68 1019.57 1019.47 1019.38 1019.30 1019.23 1019.17 1019.12 1019.08 1019.04 1019.01 1018.97 1018.94 1018.90 1018.85 1018.80
1015.89 1016.12 1016.37 1016.62 1016.88 1017.14 1017.40 1017.65 1017.90 1018.13 1018.35 1018.55 1018.74 1018.92 1019.07 1019.21 1019.33 1019.44 1019.52 1019.59 1019.63 1019.66 1019.66 1019.64 1019.60 1019.54 1019.47 1019.39 1019.30 1019.20 1019.10 1019.00 1018.91 1018.81 1018.72 1018.64 1018.56 1018.49 1018.42 1018.35 1018.28 1018.22 1018.15 1018.09
1016.57 1016.76 1016.95 1017.14 1017.33 1017.52 1017.70 1017.88 1018.05 1018.21 1018.36 1018.50 1018.62 1018.73 1018.83 1018.91 1018.98 1019.03 1019.08 1019.11 1019.13 1019.14 1019.14 1019.13 1019.10 1019.06 1019.01 1018.94 1018.86 1018.77 1018.66 1018.55 1018.43 1018.31 1018.19 1018.07 1017.95 1017.83 1017.72 1017.62 1017.53 1017.44 1017.36 1017.29
1016.98 1017.13 1017.27 1017.41 1017.55 1017.68 1017.81 1017.94 1018.06 1018.17 1018.27 1018.36 1018.44 1018.50 1018.55 1018.59 1018.61 1018.63 1018.64 1018.64 1018.64 1018.63 1018.62 1018.60 1018.57 1018.54 1018.49 1018.42 1018.34 1018.24 1018.12 1017.99 1017.85 1017.69 1017.53 1017.37 1017.21 1017.06 1016.92 1016.80 1016.68 1016.59 1016.50 1016.43
Thickness
5759 5772 5780 5782 5786 5791 5783 5774 5767 5775 5783 5796 5808 5815 5818 5817 5815 5815 5814 5814 5814 5814 5815 5814 5813 5812 5810 5807 5803 5799 5794 5789 5786 5783 5780 5776 5772 5768 5765 5762 5759 5755 5752 5748
5752 5769 5775 5775 5784 5789 5788 5787 5783 5785 5788 5807 5813 5815 5814 5812 5812 5811 5810 5812 5812 5812 5812 5811 5810 5809 5807 5805 5802 5797 5792 5788 5785 5781 5778 5774 5770 5766 5763 5759 5756 5752 5748 5745
5728 5751 5759 5751 5774 5781 5782 5787 5787 5777 5789 5803 5802 5806 5806 5807 5808 5808 5809 5810 5810 5809 5809 5809 5808 5808 5804 5802 5799 5794 5790 5787 5783 5779 5775 5771 5769 5764 5760 5756 5753 5749 5745 5742
5716 5731 5722 5748 5781 5787 5783 5784 5790 5792 5796 5801 5802 5804 5806 5807 5806 5806 5807 5807 5807 5807 5807 5807 5806 5804 5801 5798 5794 5790 5787 5783 5781 5777 5773 5769 5765 5760 5757 5753 5749 5745 5741 5739
5701 5706 5720 5751 5773 5777 5771 5767 5785 5788 5790 5793 5797 5795 5793 5802 5805 5805 5806 5805 5805 5805 5804 5802 5801 5800 5796 5792 5789 5785 5782 5780 5778 5774 5770 5765 5761 5757 5754 5749 5745 5741 5737 5734
5697 5700 5703 5735 5767 5781 5772 5752 5777 5784 5785 5786 5787 5771 5777 5795 5799 5800 5801 5802 5800 5799 5798 5795 5794 5794 5789 5786 5782 5779 5778 5777 5775 5771 5767 5762 5758 5754 5751 5746 5742 5738 5733 5729
5691 5693 5708 5742 5764 5770 5740 5743 5769 5777 5780 5780 5777 5778 5784 5790 5791 5792 5793 5795 5795 5793 5790 5789 5789 5788 5783 5780 5777 5777 5776 5773 5769 5766 5763 5759 5755 5750 5746 5741 5736 5732 5727 5724
5683 5684 5699 5743 5750 5743 5743 5758 5764 5770 5774 5776 5776 5780 5782 5782 5783 5783 5783 5785 5786 5785 5782 5782 5783 5781 5777 5774 5775 5773 5770 5766 5763 5760 5758 5754 5749 5745 5740 5735 5729 5725 5720 5716
5692 5698 5719 5735 5739 5746 5750 5751 5756 5760 5766 5770 5769 5769 5772 5773 5774 5775 5776 5776 5776 5775 5773 5773 5774 5773 5768 5768 5768 5765 5761 5758 5755 5752 5751 5748 5743 5738 5733 5729 5724 5719 5715 5711
5692 5703 5715 5725 5735 5740 5744 5747 5752 5757 5760 5763 5761 5761 5762 5764 5765 5765 5767 5767 5767 5766 5764 5763 5764 5764 5762 5762 5761 5757 5753 5749 5746 5742 5741 5739 5736 5732 5727 5722 5718 5714 5710 5707
5683 5696 5706 5714 5722 5730 5736 5741 5745 5748 5751 5753 5752 5752 5754 5755 5755 5757 5758 5759 5758 5757 5755 5754 5755 5754 5754 5754 5753 5748 5745 5741 5738 5735 5732 5729 5727 5724 5721 5719 5716 5711 5707 5703
5673 5688 5692 5700 5713 5721 5725 5728 5733 5736 5738 5742 5744 5745 5746 5746 5748 5749 5749 5749 5749 5748 5746 5746 5746 5745 5745 5746 5745 5741 5737 5733 5731 5729 5724 5720 5717 5713 5712 5710 5708 5706 5703 5699
5680 5689 5694 5702 5709 5714 5717 5722 5726 5729 5730 5730 5734 5737 5737 5737 5739 5739 5739 5740 5739 5738 5738 5737 5736 5736 5737 5737 5736 5734 5730 5727 5724 5721 5718 5714 5710 5706 5702 5700 5699 5698 5695 5693
5681 5685 5687 5693 5698 5707 5712 5716 5720 5722 5724 5724 5724 5726 5727 5727 5727 5728 5729 5730 5730 5730 5729 5729 5728 5727 5729 5729 5727 5725 5722 5719 5716 5713 5710 5707 5704 5700 5697 5694 5689 5687 5685 5683
5675 5679 5682 5687 5692 5697 5703 5707 5708 5710 5713 5714 5716 5716 5716 5716 5716 5718 5720 5721 5721 5720 5719 5719 5718 5718 5720 5720 5718 5716 5713 5710 5707 5705 5703 5700 5697 5694 5691 5688 5684 5680 5676 5674
5665 5670 5675 5679 5683 5687 5693 5696 5697 5699 5703 5705 5705 5706 5707 5708 5708 5708 5709 5711 5710 5709 5709 5709 5708 5710 5711 5711 5709 5707 5705 5703 5700 5697 5695 5692 5689 5686 5684 5681 5678 5674 5670 5667
5654 5658 5664 5667 5673 5679 5684 5688 5690 5692 5695 5696 5696 5697 5697 5698 5697 5697 5698 5701 5701 5701 5701 5701 5701 5702 5702 5702 5700 5698 5696 5694 5693 5690 5687 5685 5682 5680 5677 5674 5671 5668 5666 5664
5654 5658 5661 5664 5666 5671 5675 5680 5684 5685 5685 5687 5688 5688 5688 5688 5687 5688 5690 5691 5691 5690 5693 5694 5694 5694 5694 5694 5693 5691 5689 5686 5684 5681 5680 5678 5676 5673 5671 5668 5665 5662 5660 5656
5651 5655 5658 5662 5663 5664 5667 5671 5675 5677 5678 5678 5678 5679 5679 5680 5680 5680 5681 5681 5681 5680 5683 5685 5685 5685 5685 5685 5684 5683 5681 5678 5676 5674 5672 5671 5669 5667 5664 5662 5660 5658 5655 5651
5647 5651 5654 5657 5659 5659 5662 5665 5668 5669 5670 5670 5670 5670 5669 5670 5672 5672 5672 5672 5673 5674 5676 5676 5676 5676 5676 5676 5675 5673 5672 5670 5667 5665 5664 5662 5661 5659 5657 5655 5653 5651 5649 5646
5639 5643 5646 5648 5650 5653 5656 5659 5660 5660 5662 5663 5662 5661 5662 5662 5663 5663 5662 5662 5665 5666 5667 5667 5667 5666 5666 5666 5665 5664 5662 5660 5658 5657 5655 5653 5652 5650 5649 5648 5646 5645 5643 5640
5633 5635 5637 5641 5644 5645 5647 5650 5652 5652 5653 5654 5655 5655 5654 5654 5655 5655 5656 5656 5657 5658 5658 5658 5658 5658 5658 5658 5656 5655 5653 5652 5650 5648 5646 5645 5644 5642 5641 5640 5638 5638 5636 5634
5625 5627 5630 5634 5636 5637 5639 5641 5643 5644 5645 5647 5647 5647 5647 5647 5648 5647 5646 5649 5650 5651 5650 5650 5650 5650 5649 5648 5647 5646 5645 5644 5642 5640 5639 5638 5636 5635 5634 5634 5632 5631 5629 5627
5619 5621 5625 5628 5630 5630 5630 5633 5636 5637 5638 5640 5640 5641 5640 5640 5640 5641 5641 5643 5643 5643 5642 5641 5641 5641 5640 5640 5639 5638 5637 5636 5634 5633 5632 5631 5630 5629 5628 5627 5625 5624 5622 5621
5615 5617 5620 5621 5622 5623 5624 5626 5628 5629 5630 5631 5632 5633 5634 5634 5634 5634 5636 5636 5636 5635 5634 5634 5634 5633 5632 5632 5631 5630 5629 5628 5627 5626 5625 5624 5623 5622 5620 5619 5617 5616 5615 5613
5609 5611 5612 5615 5616 5618 5619 5620 5621 5622 5623 5624 5624 5626 5627 5628 5629 5629 5629 5629 5629 5629 5628 5627 5627 5626 5625 5624 5624 5623 5622 5621 5621 5620 5618 5617 5616 5614 5612 5611 5609 5607 5606 5605
5604 5605 5607 5609 5611 5613 5614 5615 5616 5617 5618 5618 5618 5620 5622 5622 5622 5622 5622 5622 5622 5621 5620 5620 5619 5618 5618 5617 5617 5616 5616 5615 5614 5612 5611 5609 5608 5605 5604 5603 5601 5599 5598 5596